Regional Weather Roundup
Issued by NWS Jackson, KY

Home | Current Version | Previous Version | Graphics & Text | Print | Product List | Glossary On
Versions: 1 2 3 4 5 6 7 8 9 10 11 12 13 14 15 16 17 18 19 20 21 22 23 24 25 26 27
000
ASUS43 KJKL 202010
RWRJKL

EAST KENTUCKY HOURLY WEATHER ROUNDUP
NATIONAL WEATHER SERVICE JACKSON KY
400 PM EDT SUN MAY 20 2018

NOTE: "FAIR" INDICATES FEW OR NO CLOUDS BELOW 12,000 FEET WITH
NO SIGNIFICANT WEATHER AND/OR OBSTRUCTIONS TO VISIBILITY.

* THESE REPORTS ARE NOT UNDER NWS QUALITY CONTROL AND MAY NOT
  REPORT WEATHER SUCH AS PRECIPITATION AND FOG.

KYZ079-080-083-085-087-088-110-112-115-119-120-202100
...EASTERN KENTUCKY...

CITY           SKY/WX    TMP DP  RH WIND       PRES   REMARKS
JACKSON          N/A     85  64  49 VRB3      30.13F
LONDON           N/A     87  62  43 MISG      30.13F
SOMERSET*        N/A     86  61  42 MISG      30.12F
MONTICELLO*      N/A     86  62  44 NW9       30.13F
WILLIAMSBURG*    N/A     84  63  48 N3        30.12F
MIDDLESBORO*     N/A     86  62  45 N6        30.13F
HARLAN APT*      N/A     84  60  44 N3        30.15F
PIKE CO APT*     N/A     83  65  55 CALM      30.13F
BIG SANDY APT* MOCLDY    84  66  54 W7        30.12F
MOREHEAD APT*    N/A     84  63  48 VRB5      30.12F
ASHLAND*         N/A     84  67  56 VRB3      30.08F
$$

KYZ035-036-041-042-044-050-067-078-099-202100
...CENTRAL KENTUCKY...

CITY           SKY/WX    TMP DP  RH WIND       PRES   REMARKS
MT STERLING*     N/A     82  64  54 W6        30.13F
FLEMING/MASON*   N/A     85  63  47 W5        30.11F
DANVILLE*        N/A     86  63  45 W6        30.12F
LEXINGTON        N/A     86  66  51 NW3       30.11F
FRANKFORT        N/A     86  62  44 VRB6      30.09F
LOUISVILLE       N/A     89  64  43 W6        30.07F HX  90
LEBANON*         N/A     86  63  45 CALM      30.10F
GLASGOW*         N/A     89  65  46 W3        30.09F HX  90
BOWLING GREEN    N/A     87  68  52 W6        30.08F HX  90
$$

KYZ091>093-OHZ055-061-077-WVZ005-015-034-035-042-202100
...SOUTHERN OHIO/WEST VIRGINIA...

CITY           SKY/WX    TMP DP  RH WIND       PRES   REMARKS
COVINGTON        N/A     85  63  47 VRB7      30.09F
COLUMBUS         N/A     78  60  53 N5        30.11F
DAYTON         PTSUNNY   77  65  66 CALM      30.11F
WILMINGTON     PTSUNNY   80  66  62 NW6       30.10F
HUNTINGTON     PTSUNNY   86  63  45 W8        30.09F
CHARLESTON       N/A     85  63  47 SW10      30.10S
PINEVILLE*       N/A     83  62  48 MISG      30.20S
BECKLEY        PTSUNNY   78  58  49 W10       30.19S
BLUEFIELD        N/A     78  60  53 NW8       30.21S
LOGAN CO APT*  MOCLDY    82  64  54 CALM      30.14F
$$

VAZ002-007-008-TNZ017-027-036-066-071-202100
...SOUTHWEST VIRGINIA/EAST TENNESSEE...

CITY           SKY/WX    TMP DP  RH WIND       PRES   REMARKS
WISE*          PTSUNNY   81  63  54 NW5       30.22F
JONESVILLE*      N/A     84  66  54 CALM      30.16F
ABINGDON*        N/A     82  65  54 NW5       30.17F
BRISTOL        PTSUNNY   85  62  46 CALM      30.14F
MORRISTOWN*    PTCLDY    84  66  54 N7        30.14S
SEVIERVILLE*   PTCLDY    86  64  48 NE5       30.12F
KNOXVILLE      PTSUNNY   86  65  49 CALM      30.10F
LAFOLLETTE*    PTCLDY    86  64  48 VRB5      30.14F
OAK RIDGE        N/A     87  65  47 CALM      30.11F
CROSSVILLE       N/A     82  58  43 NE6       30.17S
NASHVILLE      PTSUNNY   91  66  43 E6        30.07F HX  93
$$

...KEY TO REMARKS...
VSB - VISIBILITY IN MILES
WCI - WIND CHILL INDEX
HX  - HEAT INDEX

$$




USA.gov is the U.S. government's official web portal to all federal, state and local government web resources and services.